• în Republica Moldova
  • Lista ţărilor
  • Pe 7 zile
  • Temperatura apei
  • Hartă satelitară
  • Meteo pe hartă
  • Widget-uri
  • user-avatar
    Intrare

    Meteo pe oră la Moskovka

    Astăzi, 16 Noiembrie, Vineri

    Timp Temperatura Precipitaţii Vânt Presiune Umiditate
    00:00 0°C° 0 mm 1 m/s 756 mmHg 92%
    01:00 0°C° 0 mm 1 m/s 756 mmHg 92%
    02:00 -1°C° 0 mm 1 m/s 756 mmHg 93%
    03:00 -1°C° 0 mm 1 m/s 757 mmHg 93%
    04:00 -1°C° 0 mm 1 m/s 757 mmHg 93%
    05:00 -1°C° 0 mm 1 m/s 757 mmHg 93%
    06:00 -1°C° 0 mm 1 m/s 757 mmHg 92%
    07:00 -1°C° 0 mm 1 m/s 758 mmHg 92%
    08:00 -1°C° 0 mm 1 m/s 758 mmHg 92%
    09:00 0°C° 0 mm 1 m/s 758 mmHg 88%
    10:00 +1°C° 0 mm 1 m/s 758 mmHg 84%
    11:00 +2°C° 0 mm 1 m/s 759 mmHg 80%
    12:00 +2°C° 0 mm 1 m/s 759 mmHg 81%
    13:00 +2°C° 0 mm 1 m/s 759 mmHg 82%
    14:00 +2°C° 0 mm 1 m/s 758 mmHg 83%
    15:00 +1°C° 0 mm 1 m/s 758 mmHg 85%
    16:00 0°C° 0 mm 1 m/s 758 mmHg 87%
    17:00 -1°C° 0 mm 1 m/s 758 mmHg 89%
    18:00 -1°C° 0 mm 1 m/s 758 mmHg 89%
    19:00 -1°C° 0 mm 1 m/s 758 mmHg 89%
    20:00 -1°C° 0 mm 1 m/s 758 mmHg 90%
    21:00 -1°C° 0 mm 1 m/s 758 mmHg 89%
    22:00 -3°C° 0 mm 2 m/s 758 mmHg 89%
    23:00 -3°C° 0 mm 2 m/s 758 mmHg 88%

    Mâine, 17 Noiembrie, Sâmbătă

    Timp Temperatura Precipitaţii Vânt Presiune Umiditate
    00:00 -3°C° 0 mm 2 m/s 758 mmHg 88%
    01:00 -3°C° 0 mm 2 m/s 758 mmHg 87%
    02:00 -3°C° 0 mm 2 m/s 758 mmHg 86%
    03:00 -3°C° 0 mm 2 m/s 757 mmHg 87%
    04:00 -3°C° 0 mm 2 m/s 757 mmHg 87%
    05:00 -3°C° 0 mm 2 m/s 756 mmHg 88%
    06:00 -3°C° 0 mm 2 m/s 756 mmHg 88%
    07:00 -4°C° 0 mm 3 m/s 755 mmHg 88%
    08:00 -4°C° 0 mm 3 m/s 755 mmHg 89%
    09:00 -2°C° 0 mm 3 m/s 754 mmHg 86%
    10:00 -2°C° 0 mm 3 m/s 754 mmHg 83%
    11:00 -2°C° 0 mm 4 m/s 753 mmHg 81%
    12:00 -2°C° 0.2 mm 4 m/s 753 mmHg 82%
    13:00 -1°C° 0.2 mm 4 m/s 752 mmHg 83%
    14:00 -1°C° 0.2 mm 4 m/s 751 mmHg 83%
    15:00 -1°C° 0.2 mm 4 m/s 750 mmHg 85%
    16:00 -2°C° 0.2 mm 4 m/s 749 mmHg 87%
    17:00 -2°C° 0.2 mm 4 m/s 749 mmHg 89%
    18:00 -2°C° 0.1 mm 4 m/s 748 mmHg 90%
    19:00 -1°C° 0.1 mm 4 m/s 747 mmHg 90%
    20:00 -1°C° 0.1 mm 4 m/s 746 mmHg 91%
    21:00 -1°C° 0.1 mm 4 m/s 745 mmHg 92%
    22:00 -1°C° 0.1 mm 4 m/s 744 mmHg 93%
    23:00 -1°C° 0.1 mm 4 m/s 744 mmHg 94%

    Poimâine, 18 Noiembrie, Duminică

    Timp Temperatura Precipitaţii Vânt Presiune Umiditate
    00:00 0°C° 0.2 mm 3 m/s 743 mmHg 94%
    01:00 0°C° 0.2 mm 3 m/s 742 mmHg 95%
    02:00 0°C° 0.2 mm 3 m/s 741 mmHg 95%
    03:00 0°C° 0.2 mm 3 m/s 741 mmHg 95%
    04:00 0°C° 0.2 mm 3 m/s 740 mmHg 96%
    05:00 +1°C° 0.2 mm 2 m/s 739 mmHg 96%
    06:00 +1°C° 0.1 mm 2 m/s 739 mmHg 97%
    07:00 +1°C° 0.1 mm 2 m/s 739 mmHg 97%
    08:00 +1°C° 0.1 mm 2 m/s 739 mmHg 97%
    09:00 +2°C° 0.2 mm 2 m/s 739 mmHg 96%
    10:00 +2°C° 0.2 mm 2 m/s 739 mmHg 96%
    11:00 +2°C° 0.2 mm 2 m/s 739 mmHg 95%
    12:00 +1°C° 0.3 mm 3 m/s 739 mmHg 94%
    13:00 +1°C° 0.3 mm 3 m/s 739 mmHg 94%
    14:00 +1°C° 0.3 mm 3 m/s 739 mmHg 93%
    15:00 +1°C° 0.1 mm 3 m/s 740 mmHg 93%
    16:00 +1°C° 0.1 mm 3 m/s 740 mmHg 92%
    17:00 0°C° 0.1 mm 3 m/s 740 mmHg 92%
    18:00 0°C° 0.1 mm 3 m/s 740 mmHg 93%
    19:00 0°C° 0.1 mm 3 m/s 741 mmHg 93%
    20:00 0°C° 0.1 mm 3 m/s 741 mmHg 94%
    21:00 0°C° 0.1 mm 3 m/s 742 mmHg 93%
    22:00 0°C° 0.1 mm 3 m/s 742 mmHg 93%
    23:00 0°C° 0.1 mm 3 m/s 743 mmHg 93%

    19 Noiembrie, Luni

    Timp Temperatura Precipitaţii Vânt Presiune Umiditate
    00:00 0°C° 0.1 mm 3 m/s 743 mmHg 93%
    01:00 0°C° 0.1 mm 3 m/s 743 mmHg 93%
    02:00 0°C° 0.1 mm 3 m/s 744 mmHg 93%
    03:00 0°C° 0.1 mm 3 m/s 744 mmHg 93%
    04:00 0°C° 0.1 mm 3 m/s 744 mmHg 93%
    05:00 0°C° 0.1 mm 3 m/s 744 mmHg 92%
    06:00 0°C° 0.2 mm 3 m/s 745 mmHg 92%
    07:00 0°C° 0.2 mm 3 m/s 745 mmHg 91%
    08:00 0°C° 0.2 mm 3 m/s 745 mmHg 91%
    09:00 0°C° 0.2 mm 3 m/s 746 mmHg 91%
    10:00 0°C° 0.2 mm 3 m/s 746 mmHg 91%
    11:00 0°C° 0.2 mm 3 m/s 747 mmHg 90%
    12:00 0°C° 0.2 mm 3 m/s 747 mmHg 91%
    13:00 +1°C° 0.2 mm 2 m/s 747 mmHg 91%
    14:00 +1°C° 0.2 mm 2 m/s 747 mmHg 92%
    15:00 +1°C° 0.1 mm 2 m/s 748 mmHg 92%
    16:00 -1°C° 0.1 mm 2 m/s 748 mmHg 93%
    17:00 -1°C° 0.1 mm 3 m/s 748 mmHg 93%
    18:00 -1°C° 0 mm 3 m/s 749 mmHg 93%
    19:00 -1°C° 0 mm 3 m/s 749 mmHg 92%
    20:00 -1°C° 0 mm 3 m/s 750 mmHg 92%
    21:00 -2°C° 0 mm 3 m/s 750 mmHg 91%
    22:00 -2°C° 0 mm 3 m/s 751 mmHg 91%
    23:00 -2°C° 0 mm 3 m/s 751 mmHg 90%

    20 Noiembrie, Marţi

    Timp Temperatura Precipitaţii Vânt Presiune Umiditate
    00:00 -4°C° 0 mm 3 m/s 751 mmHg 90%
    01:00 -5°C° 0 mm 3 m/s 751 mmHg 90%
    02:00 -5°C° 0 mm 2 m/s 751 mmHg 90%
    03:00 -5°C° 0 mm 2 m/s 751 mmHg 89%
    04:00 -6°C° 0 mm 2 m/s 751 mmHg 87%
    05:00 -6°C° 0 mm 2 m/s 751 mmHg 85%
    06:00 -6°C° 0 mm 2 m/s 751 mmHg 84%
    07:00 -6°C° 0 mm 2 m/s 751 mmHg 82%
    08:00 -6°C° 0 mm 2 m/s 751 mmHg 81%
    09:00 -5°C° 0 mm 2 m/s 751 mmHg 79%
    10:00 -4°C° 0 mm 2 m/s 751 mmHg 77%
    11:00 -3°C° 0 mm 2 m/s 751 mmHg 74%
    12:00 -3°C° 0 mm 2 m/s 751 mmHg 75%
    13:00 -3°C° 0 mm 2 m/s 751 mmHg 77%
    14:00 -3°C° 0 mm 2 m/s 750 mmHg 78%
    15:00 -3°C° 0 mm 2 m/s 750 mmHg 80%
    16:00 -4°C° 0 mm 2 m/s 750 mmHg 83%
    17:00 -5°C° 0 mm 2 m/s 750 mmHg 86%
    18:00 -5°C° 0 mm 2 m/s 749 mmHg 85%
    19:00 -5°C° 0 mm 2 m/s 749 mmHg 84%
    20:00 -5°C° 0 mm 2 m/s 749 mmHg 83%
    21:00 -5°C° 0 mm 2 m/s 749 mmHg 82%
    22:00 -5°C° 0 mm 2 m/s 749 mmHg 81%
    23:00 -5°C° 0 mm 2 m/s 749 mmHg 80%

    21 Noiembrie, Miercuri

    Timp Temperatura Precipitaţii Vânt Presiune Umiditate
    00:00 -5°C° 0 mm 2 m/s 748 mmHg 80%
    01:00 -5°C° 0 mm 2 m/s 748 mmHg 80%
    02:00 -5°C° 0 mm 2 m/s 748 mmHg 80%
    03:00 -5°C° 0 mm 2 m/s 748 mmHg 81%
    04:00 -5°C° 0 mm 2 m/s 747 mmHg 81%
    05:00 -5°C° 0 mm 2 m/s 747 mmHg 82%
    06:00 -5°C° 0 mm 2 m/s 747 mmHg 82%
    07:00 -5°C° 0 mm 2 m/s 747 mmHg 83%
    08:00 -5°C° 0 mm 2 m/s 747 mmHg 83%
    09:00 -5°C° 0 mm 2 m/s 746 mmHg 81%
    10:00 -4°C° 0 mm 2 m/s 746 mmHg 79%
    11:00 -3°C° 0 mm 2 m/s 746 mmHg 77%
    12:00 -3°C° 0 mm 2 m/s 746 mmHg 77%
    13:00 -3°C° 0 mm 2 m/s 745 mmHg 78%
    14:00 -3°C° 0 mm 2 m/s 745 mmHg 78%
    15:00 -4°C° 0 mm 3 m/s 745 mmHg 79%
    16:00 -5°C° 0 mm 3 m/s 744 mmHg 81%
    17:00 -6°C° 0 mm 3 m/s 744 mmHg 83%
    18:00 -6°C° 0 mm 3 m/s 744 mmHg 81%
    19:00 -6°C° 0 mm 3 m/s 744 mmHg 80%
    20:00 -6°C° 0 mm 3 m/s 743 mmHg 78%
    21:00 -6°C° 0 mm 3 m/s 743 mmHg 77%
    22:00 -6°C° 0 mm 3 m/s 743 mmHg 76%
    23:00 -6°C° 0 mm 3 m/s 743 mmHg 75%
    Arată mai mult